Regional Weather Roundup
Issued by NWS

Home | Current Version | Previous Version | Graphics & Text | Print | Product List | Glossary On
Versions: 1 2 3 4 5 6 7 8 9 10 11 12 13 14 15 16 17 18 19 20 21 22 23 24 25 26 27 28 29 30 31 32 33 34 35 36 37 38 39 40 41 42 43 44 45 46 47 48 49 50
000
ASUS43 KLSX 170407
RWRMO

WEATHER SUMMARY FOR MISSOURI
NATIONAL WEATHER SERVICE SPRINGFIELD MO
1000 PM CST TUE JAN 16 2018

NOTE: "FAIR" INDICATES FEW OR NO CLOUDS BELOW 12,000 FEET WITH NO
       SIGNIFICANT WEATHER AND/OR OBSTRUCTIONS TO VISIBILITY.
       CURRENT SKY AND/OR WEATHER CONDITIONS ARE NOT AVAILABLE FOR
       CHILLICOTHE AND FARMINGTON.

MOZ001>031-035>038-043-044-053-054-170500-
...NORTHERN AND WESTERN MISSOURI...

CITY           SKY/WX    TMP DP  RH WIND       PRES   REMARKS
KANSAS CTY INT CLOUDY     4  -1  80 W3        30.69F
KANSAS C DTWN  CLOUDY     7   0  73 CALM      30.73F
LEE`S SUMMIT   CLOUDY     4  -1  80 CALM      30.70F
ST JOSEPH      CLOUDY    -1  -4  87 CALM      30.73S
CHILLICOTHE      N/A      3  -2  79 CALM      30.72S
KIRKSVILLE     CLOUDY    -1  -4  87 W3        30.67S

$$
MOZ066>068-077>081-088>096-101>105-170500-
...SOUTHWEST MISSOURI...

CITY           SKY/WX    TMP DP  RH WIND       PRES   REMARKS
SPRINGFIELD    CLOUDY     2  -2  83 NW3       30.68F
JOPLIN         CLOUDY    -2  -4  91 CALM      30.73F
BRANSON        CLEAR      3   0  85 NW6       30.69S WCI  -8

$$
MOZ032>034-039>042-045>050-055>058-069>072-170500-
...CENTRAL MISSOURI...

CITY           SKY/WX    TMP DP  RH WIND       PRES   REMARKS
COLUMBIA       CLEAR      3  -2  79 W6        30.69S WCI  -8
JEFFERSON CITY CLEAR      5  -1  76 W6        30.75S WCI  -6
ROLLA          CLOUDY     6   1  80 W6        30.67F WCI  -4
SEDALIA        CLOUDY     3   0  87 NW5       30.72S WCI  -6
WHITEMAN AFB   CLEAR      3  -4  72 W3        30.67F
WARRENSBURG    CLOUDY     3   0  85 CALM      30.73S
OSAGE BEACH    CLEAR     -3 -11  68 CALM      30.73S

$$
MOZ051-052-059>065-170500-
...EAST CENTRAL MISSOURI...

CITY           SKY/WX    TMP DP  RH WIND       PRES   REMARKS
ST LOUIS INTL  FLURRIES  10   4  76 W9        30.69F WCI  -3
SPIRIT OF STL  CLOUDY    11   3  70 W7        30.71S WCI   0
ST CHARLES     CLOUDY    10   3  73 W7        30.70F WCI  -1

$$
MOZ072>076-082>087-097>100-106>115-170500-
...SOUTH CENTRAL AND SOUTHEAST MISSOURI...

CITY           SKY/WX    TMP DP  RH WIND       PRES   REMARKS
CAPE GIRARDEAU CLOUDY    12   3  67 NW8       30.71R WCI   0
FARMINGTON     FLURRIES   7   0  73 NW10      30.67S WCI  -8
POPLAR BLUFF   CLOUDY   N/A N/A N/A NW10      30.72R
WEST PLAINS    CLEAR      3  -3  76 NW6       30.66S WCI  -8

$$


USA.gov is the U.S. government's official web portal to all federal, state and local government web resources and services.